Location: Waco, TX
(31.5480°N, 97.1670°W)
Time: 16:17:23
(UTC-06:00)

ISS - Pass Details

Date: 12 November 2018
Orbit: 402 x 409 km, 51.6° (Epoch: 14 November)

Event Time Altitude Azimuth Distance (km) Brightness Sun altitude
Rises 08:11:48 0° 290° (WNW) 2,319 -0.6 14.0°
Reaches altitude 10° 08:15:06 10° 254° (WSW) 1,456 -1.3 14.6°
Maximum altitude 08:16:09 11° 235° (SW) 1,383 -1.3 14.8°
Drops below altitude 10° 08:17:13 10° 216° (SW) 1,455 -1.0 15.0°
Sets 08:20:31 0° 179° (S) 2,310 0.5 15.6°
